[[{"header":{"parameterUnit":"m.s-1","parameterCategory":1,"la1":30.2991,"la2":30.254,"lo1":-89.0895,"lo2":-89.0444,"dy":0.0017,"dx":0.0017,"nx":28,"ny":28,"refTime":"2024-11-30T03:00:00:Z","depth":0,"parameterNumber":2,"parameterNumberName":"U-component_of_WINDS"},"data":[0,0,0,0,0,0,0,0,0,0,0,0,0,0,0,0,0,0,0,0,0,0,0,0,0,0,0,0,0,0,0,0,0,0,0,0,0,0,0,0,0,0,0,0,0,0,0,0,0,0,0,0,0,0,0,0,0,0,-1.9582,-1.9582,0,-1.9644,-1.9644,-1.9645,-1.9567,-1.9564,-1.9561,-1.9558,-1.9624,-1.9628,-1.9632,0,0,0,0,0,0,0,0,0,0,0,0,0,-1.9396,-1.94,-1.9582,-1.9582,-1.9583,-1.9644,-1.9644,-1.9645,-1.9567,-1.9564,-1.956,-1.9557,-1.9622,-1.9628,-1.9633,0,0,0,0,0,0,0,0,0,0,0,0,0,-1.9469,-1.9401,-1.9581,-1.9552,-1.9549,-1.9643,-1.9645,-1.9646,-1.9568,-1.9564,-1.956,-1.9556,-1.9621,-1.9627,-1.9634,-1.9761,0,0,-1.9654,-1.9657,0,0,0,0,0,0,0,0,-1.9465,-1.9476,-1.9555,-1.9554,-1.9552,-1.9593,-1.9603,-1.9684,-1.9569,-1.9561,-1.9558,-1.9553,-1.9617,-1.9624,-1.9645,-1.9764,-1.9766,-1.9654,-1.9658,-1.9661,-1.9663,0,0,0,0,0,0,0,-1.946,-1.9473,-1.9606,-1.9556,-1.9554,-1.9535,-1.9541,-1.9618,-1.9613,-1.9562,-1.9556,-1.9564,-1.9615,-1.9639,-1.9646,-1.9767,-1.9654,-1.966,-1.9664,-1.9667,-1.9993,-1.9997,0,0,0,0,0,0,-1.9458,-1.9469,-1.9604,-1.9608,-1.9497,-1.9542,-1.9548,-1.9584,-1.9612,-1.9612,-1.9568,-1.956,-1.963,-1.9638,-1.9648,-1.9799,-1.9661,-1.9667,-1.9671,-1.9988,-1.9994,-1.9999,0,0,0,0,0,0,-1.9455,-1.9471,-1.9602,-1.9537,-1.9552,-1.955,-1.9591,-1.9588,-1.9611,-1.9616,-1.9615,-1.9593,-1.9627,-1.9639,-1.9733,-1.98,-1.967,-1.9676,-1.9982,-1.999,-1.9996,-2.0101,0,0,0,0,0,0,-1.945,-1.947,-1.9519,-1.9539,-1.9556,-1.9686,-1.9595,-1.9592,-1.9622,-1.9613,-1.9639,-1.964,-1.9624,-1.9723,-1.974,-1.9807,-1.9682,-1.9976,-1.9986,-1.9994,-2.0092,-2.0111,-2.0128,0,0,0,0,0,-1.9443,-1.9546,-1.9522,-1.9538,-1.9616,-1.969,-1.97,-1.968,-1.9628,-1.9677,-1.968,-1.9639,-1.9789,-1.9734,-1.9751,-1.9821,-1.9972,-1.9983,-1.9993,-2.0084,-2.0107,-2.0127,0,0,0,0,0,0,-1.9535,-1.9549,-1.9521,-1.9634,-1.9661,-1.9677,-1.9738,-1.9705,-1.9748,-1.9738,-1.9711,-1.9718,-1.9818,-1.9829,-1.9767,-1.9945,-1.9872,-1.9887,-1.9935,-1.9958,-1.9975,-1.9972,-1.9687,0,0,0,0,0,-1.9568,-1.9627,-1.9635,-1.9734,-1.9749,-1.9741,-1.9772,-1.9754,-1.9782,-1.9793,-1.9803,-1.9832,-1.9885,-1.9922,-1.9971,-2.0092,-2.0097,-2.0149,-2.0166,-2.0181,-2.0195,-2.0259,-2.0283,-2.0033,-2.0033,-2.0033,0,0,-1.9638,-1.9652,-1.9691,-1.9752,-1.9772,-1.9833,-1.9751,-1.982,-1.9865,-1.9804,-1.9894,-1.9902,-1.9932,-2.004,-2.0088,-2.0052,-2.0264,-2.0194,-2.0206,-2.0212,-2.0273,-2.0296,-2.0317,-2.004,-2.0039,-2.0038,0,0,-1.9797,-1.9813,-1.9897,-1.9917,-1.9947,-1.9941,-1.9961,-1.9981,-1.9984,-2.0073,-2.0028,-2.0081,-2.0174,-2.0198,-2.0222,-2.0387,-2.0351,-2.0403,-2.0498,-2.0561,-2.0581,-2.0598,-2.0658,-2.068,-2.0416,-2.0417,-2.0417,0,-1.988,-1.9971,-1.9945,-2.0016,-2.0045,-1.999,-2.0075,-2.0096,-2.0141,-2.0162,-2.012,-2.0234,-2.0251,-2.0364,-2.0404,-2.0425,-2.0447,-2.0402,-2.058,-2.0597,-2.0613,-2.067,-2.0692,-2.0423,-2.0422,-2.0422,-2.0421,0,-2.0072,-2.0135,-2.0199,-2.0243,-2.0278,-2.0357,-2.0342,-2.0381,-2.0359,-2.0357,-2.0448,-2.0465,-2.0517,-2.0542,-2.0522,-2.0652,-2.0629,-2.0584,-2.051,-2.0643,-2.0697,-2.0718,-2.0432,-2.043,-2.0428,-2.0426,0,0,-2.0294,-2.032,-2.0344,-2.0363,-2.0391,-2.044,-2.0514,-2.0565,-2.0599,-2.063,-2.0693,-2.0772,-2.073,-2.0757,-2.0738,-2.0794,-2.0924,-2.0742,-2.0742,-2.0776,-2.107,-2.1106,-2.1131,-2.0899,-2.0903,-2.0906,-2.1068,0,-2.0454,-2.0584,-2.0561,-2.0687,-2.0746,-2.0693,-2.0758,-2.0782,-2.0782,-2.0831,-2.083,-2.0887,-2.0827,-2.0843,-2.0895,-2.0898,-2.0983,-2.0885,-2.0959,-2.0962,-2.0955,-2.1159,-2.1197,-2.1349,-2.1089,-2.1092,-2.1095,0,-2.0658,-2.0697,-2.0829,-2.0847,-2.087,-2.093,-2.0973,-2.1021,-2.1046,-2.1042,-2.1072,-2.1042,-2.1116,-2.104,-2.1142,-2.1076,-2.1104,-2.1109,-2.1115,-2.1123,-2.1038,-2.1174,-2.1396,-2.142,-2.1127,-2.1124,-2.1122,0,-2.0809,-2.0894,-2.0984,-2.1001,-2.1024,-2.1066,-2.1078,-2.1099,-2.113,-2.1168,-2.1188,-2.1234,-2.126,-2.1296,-2.128,-2.1225,-2.1386,-2.1307,-2.1385,-2.1386,-2.1424,-2.1422,-2.1656,-2.1438,-2.1438,-2.1438,-2.1437,0,-2.0991,-2.1075,-2.1051,-2.1107,-2.1199,-2.1171,-2.1262,-2.1267,-2.1286,-2.1342,-2.1298,-2.1351,-2.1325,-2.1376,-2.1363,-2.1451,-2.1462,-2.1461,-2.1457,-2.1467,-2.1467,-2.1487,-2.1476,-2.1444,-2.1442,-2.1441,-2.144,0,-2.1176,-2.1164,-2.1259,-2.1271,-2.1276,-2.1343,-2.1354,-2.1406,-2.1401,-2.1472,-2.1487,-2.1479,-2.1537,-2.1523,-2.1586,-2.1577,-2.1688,-2.1669,-2.168,-2.1676,-2.1755,-2.1749,-2.2011,-2.2045,-2.1804,-2.1806,-2.1808,0,-2.1295,-2.1358,-2.1376,-2.141,-2.1425,-2.148,-2.1511,-2.1486,-2.152,-2.1553,-2.1601,-2.1654,-2.1696,-2.1791,-2.1791,-2.1839,-2.1823,-2.1911,-2.183,-2.1837,-2.1826,-2.1824,-2.183,-2.1929,-2.1932,-2.1934,-2.1936,0,-2.1507,-2.1497,-2.1544,-2.1589,-2.1627,-2.1661,-2.1691,-2.1721,-2.1697,-2.1738,-2.1796,-2.1829,-2.1892,-2.1946,-2.199,-2.2001,-2.1966,-2.1961,-2.1981,-2.1993,-2.1997,-2.1997,-2.1726,-2.1956,-2.1954,-2.1952,-2.1951,-2.195,-2.1664,-2.1717,-2.1738,-2.1792,-2.1811,-2.1839,-2.1889,-2.1889,-2.1937,-2.1987,-2.1968,-2.2035,-2.2057,-2.2112,-2.2129,-2.218,-2.2147,-2.2177,-2.2185,-2.2193,-2.2204,-2.1986,-2.2188,-2.2187,-2.2187,-2.2186,-2.2186,0,-2.1875,-2.1886,-2.1935,-2.1977,-2.2019,-2.1979,-2.201,-2.2048,-2.2107,-2.2131,-2.2172,-2.2239,-2.229,-2.2294,-2.2342,-2.2383,-2.2367,-2.2396,-2.2394,-2.2398,-2.223,-2.2208,-2.2408,-2.2408,-2.2408,-2.2408,-2.2408,-2.2408,-2.199,-2.2079,-2.2071,-2.2168,-2.2177,-2.2243,-2.2263,-2.2289,-2.2308,-2.2384,-2.2427,-2.2428,-2.2443,-2.2492,-2.2537,-2.2537,-2.2558,-2.2594,-2.2587,-2.2431,-2.2409,-2.2388,-2.2368,-2.2598,-2.2598,-2.275,-2.2752,-2.2753]},{"header":{"parameterUnit":"m.s-1","parameterCategory":1,"la1":30.2991,"la2":30.254,"lo1":-89.0895,"lo2":-89.0444,"dy":0.0017,"dx":0.0017,"nx":28,"ny":28,"refTime":"2024-11-30T03:00:00:Z","depth":0,"parameterNumber":3,"parameterNumberName":"V-component_of_WINDS"},"data":[0,0,0,0,0,0,0,0,0,0,0,0,0,0,0,0,0,0,0,0,0,0,0,0,0,0,0,0,0,0,0,0,0,0,0,0,0,0,0,0,0,0,0,0,0,0,0,0,0,0,0,0,0,0,0,0,0,0,-7.3756,-7.3758,0,-7.39,-7.3902,-7.3904,-7.379,-7.3785,-7.378,-7.3775,-7.3917,-7.3925,-7.3934,0,0,0,0,0,0,0,0,0,0,0,0,0,-7.3375,-7.3383,-7.3756,-7.3758,-7.376,-7.39,-7.3902,-7.3904,-7.3791,-7.3785,-7.3779,-7.3773,-7.3915,-7.3924,-7.3934,0,0,0,0,0,0,0,0,0,0,0,0,0,-7.3532,-7.3386,-7.3756,-7.372,-7.3718,-7.39,-7.3902,-7.3905,-7.3792,-7.3784,-7.3777,-7.377,-7.3911,-7.3923,-7.3936,-7.4158,0,0,-7.3974,-7.3979,0,0,0,0,0,0,0,0,-7.3524,-7.3546,-7.3724,-7.3723,-7.3721,-7.382,-7.382,-7.3989,-7.3794,-7.3764,-7.3775,-7.3767,-7.389,-7.3904,-7.3947,-7.4165,-7.4171,-7.3975,-7.3982,-7.3988,-7.3991,0,0,0,0,0,0,0,-7.3513,-7.3539,-7.3813,-7.3726,-7.3725,-7.3695,-7.3709,-7.3851,-7.3866,-7.3766,-7.3758,-7.3777,-7.3888,-7.3935,-7.3949,-7.4173,-7.3974,-7.3986,-7.3993,-7.3998,-7.4579,-7.4586,0,0,0,0,0,0,-7.3506,-7.3531,-7.3808,-7.3817,-7.3603,-7.3707,-7.3723,-7.3795,-7.3864,-7.3868,-7.3783,-7.3771,-7.3917,-7.3935,-7.3954,-7.4218,-7.3988,-7.3999,-7.4006,-7.4571,-7.458,-7.4589,0,0,0,0,0,0,-7.3499,-7.3532,-7.3802,-7.3672,-7.3704,-7.3722,-7.3803,-7.3802,-7.3849,-7.3877,-7.3878,-7.3829,-7.3912,-7.3936,-7.4108,-7.4222,-7.4005,-7.4016,-7.4561,-7.4574,-7.4585,-7.475,0,0,0,0,0,0,-7.3488,-7.353,-7.3617,-7.3675,-7.3712,-7.3957,-7.3811,-7.381,-7.3871,-7.3857,-7.392,-7.3924,-7.3909,-7.409,-7.4121,-7.4235,-7.4026,-7.4551,-7.4567,-7.4581,-7.4734,-7.4766,-7.4793,0,0,0,0,0,-7.3475,-7.3656,-7.3622,-7.3656,-7.3821,-7.3964,-7.3985,-7.3965,-7.3881,-7.3967,-7.3985,-7.3922,-7.4204,-7.4109,-7.4142,-7.4262,-7.4544,-7.4562,-7.458,-7.4721,-7.4759,-7.4792,0,0,0,0,0,0,-7.3609,-7.3663,-7.3625,-7.3831,-7.3894,-7.3944,-7.4052,-7.4007,-7.4093,-7.4076,-7.4046,-7.4061,-7.4242,-7.4268,-7.4161,-7.448,-7.436,-7.4386,-7.4456,-7.4493,-7.4522,-7.4512,-7.4036,0,0,0,0,0,-7.3663,-7.3777,-7.3817,-7.3995,-7.4028,-7.4036,-7.4097,-7.4077,-7.4139,-7.4165,-7.4195,-7.4257,-7.4359,-7.4427,-7.4523,-7.4737,-7.4748,-7.4835,-7.4864,-7.4888,-7.4911,-7.5025,-7.5064,-7.4648,-7.4648,-7.4647,0,0,-7.3774,-7.3818,-7.3892,-7.4023,-7.4069,-7.4186,-7.4058,-7.4187,-7.4273,-7.4184,-7.4349,-7.4373,-7.4439,-7.4633,-7.472,-7.4661,-7.5028,-7.4911,-7.493,-7.494,-7.5047,-7.5086,-7.5121,-7.466,-7.4658,-7.4656,0,0,-7.4038,-7.4083,-7.4236,-7.4285,-7.4357,-7.436,-7.4397,-7.4454,-7.4468,-7.4633,-7.4568,-7.4668,-7.4846,-7.4896,-7.4944,-7.5226,-7.517,-7.5257,-7.5411,-7.5522,-7.5555,-7.5583,-7.5683,-7.572,-7.5279,-7.528,-7.528,0,-7.4167,-7.4343,-7.4319,-7.4454,-7.4513,-7.4439,-7.4592,-7.464,-7.4739,-7.478,-7.4713,-7.4934,-7.4973,-7.5177,-7.5246,-7.5288,-7.5327,-7.525,-7.5552,-7.5581,-7.5607,-7.5702,-7.574,-7.529,-7.5289,-7.5288,-7.5287,0,-7.4497,-7.462,-7.4734,-7.4834,-7.4905,-7.5048,-7.5045,-7.512,-7.5092,-7.5102,-7.527,-7.5315,-7.5419,-7.5465,-7.5439,-7.5665,-7.5627,-7.5557,-7.5436,-7.5658,-7.5746,-7.5782,-7.5304,-7.5301,-7.5298,-7.5295,0,0,-7.485,-7.4935,-7.4978,-7.5022,-7.5095,-7.5188,-7.5327,-7.543,-7.5494,-7.5564,-7.5678,-7.583,-7.5765,-7.5821,-7.5799,-7.5897,-7.6116,-7.5815,-7.5816,-7.5869,-7.6367,-7.642,-7.6463,-7.608,-7.6087,-7.6092,-7.6362,0,-7.5117,-7.5361,-7.5344,-7.5573,-7.5685,-7.5615,-7.5736,-7.5793,-7.5805,-7.59,-7.5912,-7.602,-7.5927,-7.596,-7.6054,-7.607,-7.6216,-7.605,-7.6185,-7.619,-7.6171,-7.6509,-7.6565,-7.6818,-7.6396,-7.6402,-7.6406,0,-7.5461,-7.5546,-7.5787,-7.5843,-7.5889,-7.5998,-7.609,-7.6183,-7.6245,-7.6246,-7.6309,-7.6271,-7.6408,-7.6284,-7.6472,-7.6359,-7.6413,-7.6429,-7.6438,-7.645,-7.6312,-7.653,-7.6898,-7.6936,-7.6461,-7.6456,-7.6452,0,-7.5695,-7.5868,-7.6034,-7.6074,-7.6144,-7.6222,-7.6254,-7.6309,-7.6372,-7.6451,-7.6491,-7.6585,-7.6637,-7.6709,-7.6697,-7.6608,-7.6888,-7.6763,-7.6892,-7.6893,-7.6955,-7.6951,-7.7336,-7.6989,-7.6989,-7.6988,-7.6987,0,-7.5995,-7.6145,-7.614,-7.6243,-7.6408,-7.6385,-7.6548,-7.6571,-7.6621,-7.6725,-7.6669,-7.6767,-7.6745,-7.6842,-7.6832,-7.6989,-7.7012,-7.7016,-7.7012,-7.7022,-7.7022,-7.7057,-7.7039,-7.6998,-7.6996,-7.6994,-7.6992,0,-7.6284,-7.6287,-7.6463,-7.6515,-7.6531,-7.6651,-7.6694,-7.6789,-7.6797,-7.6929,-7.6958,-7.6969,-7.7081,-7.7075,-7.72,-7.7194,-7.7387,-7.7362,-7.7367,-7.7362,-7.7491,-7.7479,-7.7913,-7.7968,-7.7585,-7.7589,-7.7592,0,-7.6475,-7.6589,-7.6654,-7.672,-7.6758,-7.6866,-7.693,-7.6911,-7.6979,-7.7058,-7.7144,-7.725,-7.7335,-7.7515,-7.7533,-7.7628,-7.7605,-7.775,-7.7619,-7.7625,-7.7607,-7.7601,-7.7611,-7.7776,-7.778,-7.7784,-7.7787,0,-7.6815,-7.6811,-7.6906,-7.7003,-7.7081,-7.7156,-7.7224,-7.7281,-7.7268,-7.7348,-7.7462,-7.7527,-7.7656,-7.7762,-7.7852,-7.7882,-7.7833,-7.7828,-7.7863,-7.7874,-7.7873,-7.7875,-7.7438,-7.7818,-7.7815,-7.7813,-7.7811,-7.781,-7.7061,-7.7159,-7.722,-7.7328,-7.7377,-7.7442,-7.7534,-7.7554,-7.7649,-7.7754,-7.7736,-7.7863,-7.792,-7.8038,-7.8076,-7.8174,-7.8122,-7.8173,-7.8185,-7.8198,-7.8213,-7.7857,-7.819,-7.8189,-7.8188,-7.8188,-7.8187,0,-7.7398,-7.7434,-7.7533,-7.7631,-7.7716,-7.7663,-7.7735,-7.7808,-7.7922,-7.7981,-7.8065,-7.8195,-7.8297,-7.8323,-7.8421,-7.8494,-7.8474,-7.852,-7.8515,-7.8522,-7.8254,-7.8214,-7.8535,-7.8535,-7.8535,-7.8535,-7.8535,-7.8535,-7.7583,-7.7746,-7.7749,-7.7935,-7.7968,-7.8095,-7.8141,-7.8199,-7.8246,-7.8395,-7.848,-7.8497,-7.8541,-7.8642,-7.8732,-7.8737,-7.8775,-7.8831,-7.8827,-7.8576,-7.8541,-7.8508,-7.847,-7.884,-7.884,-7.9087,-7.9089,-7.9091]}]]